Regional Weather Roundup
Issued by NWS Charleston, SC

Current Version | Previous Version | Graphics & Text | Print | Product List | Glossary On
Versions: 1 2 3 4 5 6 7 8 9 10 11 12 13 14 15 16 17 18 19 20 21 22 23 24 25 26 27 28 29 30 31 32 33 34 35 36 37 38 39 40 41 42 43 44 45 46 47 48 49 50
000
ASUS42 KCHS 122025
RWRCHS

REGIONAL WEATHER ROUNDUP
NATIONAL WEATHER SERVICE CHARLESTON SC
400 PM EDT SAT JUL 12 2014

NOTE: "FAIR" INDICATES FEW OR NO CLOUDS BELOW 12,000 FEET WITH NO
SIGNIFICANT WEATHER AND/OR OBSTRUCTIONS TO VISIBILITY.

NOT ALL STATIONS ARE QUALITY CONTROLLED BY THE NATIONAL
WEATHER SERVICE. USE DATA WITH CAUTION...ESPECIALLY
DEWPOINT OBSERVATIONS.

SCZ027-030-031-034>040-042>050-122100-
...SOUTH CAROLINA...

CITY           SKY/WX    TMP DP  RH WIND       PRES   REMARKS
N CHARLESTON   CLOUDY    83  73  72 S6        30.16F
WATERFRONT PRK   N/A     81 N/A N/A S5          N/A
FORT JOHNSON   NOT AVBL
MOUNT PLEASANT FAIR      84  73  70 SE5       30.16F HX  91
JOHNS ISLAND   PTCLDY    82  66  57 CALM      30.16F
PINOPOLIS        N/A     88  75  66 SW2G9     30.09F HX  97
MONCKS CORNER    N/A     88  77  70 S6        30.15F HX 100
SUMMERVILLE    FAIR      86  73  66 SE7       30.17F HX  93
BEAUFORT MCAS  MOSUNNY   89  71  55 VRB5      30.16F HX  95
BEAUFORT ARPT  FAIR      86  70  58 S7        30.16F HX  90
HILTON HEAD IS PTSUNNY   81  72  74 SE5       30.18F
GEORGETOWN     NOT AVBL
WALTERBORO     PTCLDY    82  70  65 SE7       30.17F
ORANGEBURG     PTSUNNY   89  70  53 SE9       30.14F HX  94
BARNWELL       FAIR      84  70  61 S12       30.15S
AIKEN          FAIR      93  68  43 NE7       30.17F HX  97
MANNING        MOCLDY    88  73  62 S9        30.15F HX  96
KINGSTREE      NOT AVBL
COLUMBIA       MOSUNNY   93  64  38 NE10      30.14F HX  94
SUMTER         NOT AVBL
FLORENCE       MOSUNNY   91  66  43 VRB5      30.15F HX  93
MYRTLE BEACH   MOSUNNY   82  72  69 S12       30.17F
N MYRTLE BEACH SUNNY     82  71  69 S8        30.17F

$$

GAZ063-065-086>088-099>101-113>116-118-119-134-136>141-150-122100-
...GEORGIA...

CITY           SKY/WX    TMP DP  RH WIND       PRES   REMARKS
SAVANNAH ARPT  PTSUNNY   85  70  60 S10       30.16F
HUNTER AAF     NOT AVBL
FORT STEWART   NOT AVBL
STATESBORO     NOT AVBL
SYLVANIA       CLEAR     89  74  62 S7        30.15F HX  98
CLAXTON        FAIR      90  72  55 SE3G10    30.13F HX  96
THOMSON        MOSUNNY   94  73  48 N5        30.18F HX 103
AUGUSTA-BUSH   MOSUNNY   91  67  44 CALM      30.11F HX  94
AUGUSTA-DANIEL MOSUNNY   96  65  35 NE10      30.14F HX  98
SWAINSBORO     FAIR      88  77  70 CALM      30.14S HX 100
VIDALIA          N/A     91  70  49 NE5       30.13S HX  97
ALMA           MOSUNNY   89  72  56 VRB5      30.12F HX  96
WAYCROSS       MOSUNNY   87  76  69 SE20G25   30.12S HX  97
JESUP          NOT AVBL
BRUNSWICK      CLOUDY    81  70  69 SE7       30.17F
SAINT SIMONS   CLOUDY    77  72  84 E10       30.17F

$$

SCZ027-028-034-036>038-045-046-048>050-GAZ119-141-122100-
...LAKE AND SUPPLEMENTAL COASTAL OBSERVATIONS...

STATION/POSITION TIME  TEMP    WIND        PRES    WAVE   SWELL
                       AIR SEA DIR/SP/G            HT/PER HT/PER/DIR
                 (UTC) (F)     (DEG/KT/KT) (MB)    (FT/S) (FT/S/D)
UPR LAKE MARION  NOT AVBL
WINYAH BAY       2000   82     120/  5     1021.0F
LAKE MURRAY      1900   90     190/  3/  5 1020.7F
ACE BASIN NERRS  2000   84     150/  2     1022.0S
FORT PULASKI     2000   80 78  130/  4/  5   N/A
SAPELO ISLAND    2000   80     120/  6     1022.0S

$$

ANZ835-935-AMZ111-154-330-350-352-354-374-450-454-472-122100-
...C-MAN AND BUOY OBSERVATIONS...

STATION/POSITION TIME  TEMP    WIND        PRES    WAVE   SWELL
                       AIR SEA DIR/SP/G            HT/PER HT/PER/DIR
                 (UTC) (F)     (DEG/KT/KT) (MB)    (FT/S) (FT/S/D)
FOLLY BEACH CMAN 2000   80     190/  4/  6 1021.8F
BUOY 41004       2000   77 82  180/  6/  8 1021.3S   2/ 8   2/ 8
BUOY 41008       2000   75 84  100/ 12/ 16 1021.5F   2/ 8   2/130/ 8
5E ST. MARYS GA  2000      83                N/A     2/ 8
FRYING PAN BUOY  NOT AVBL
BUOY 41025       2000          VRB  6/  8  1022.2F   2/ 6   2/140/ 6
CAPE LOOKOUT NC  2000   79      80/  8/ 10 1021.9F
BUOY 41002       1902   80 85  140/  2/  4 1022.5F   2/ 7   2/130/ 7
BUOY 41010       2000   83 84  120/  8/ 10 1020.5F   3/ 8   2/ 90/ 8
BUOY 41012       NOT AVBL
ST AUGUSTINE FL  2000   78      10/ 21/ 22 1021.9F
CAPERS NEARSHORE 1900   80     180/ 12/ 14   N/A
FRIPP NEARSHORE  1900   80     150/  4/  6   N/A


$$


USA.gov is the U.S. government's official web portal to all federal, state and local government web resources and services.